TimeEDT,TemperatureF,Dew PointF,Humidity,Sea Level PressureIn,VisibilityMPH,Wind Direction,Wind SpeedMPH,Gust SpeedMPH,PrecipitationIn,Events,Conditions,WindDirDegrees,DateUTC
12:15 AM,54.1,44.1,69,30.36,10.0,ENE,4.6,-,N/A,Rain,Light Rain,60,2013-04-27 04:15:00
12:35 AM,54.0,43.3,67,30.37,10.0,SE,3.5,-,N/A,,Overcast,130,2013-04-27 04:35:00
12:55 AM,55.9,41.0,57,30.36,10.0,East,4.6,-,N/A,,Overcast,100,2013-04-27 04:55:00
1:15 AM,54.9,43.0,64,30.36,10.0,Calm,Calm,-,N/A,,Overcast,0,2013-04-27 05:15:00
1:35 AM,54.1,43.9,68,30.37,10.0,Calm,Calm,-,N/A,,Overcast,0,2013-04-27 05:35:00
1:55 AM,53.8,44.8,72,30.38,10.0,West,5.8,-,N/A,,Overcast,260,2013-04-27 05:55:00
2:15 AM,54.5,43.3,66,30.38,10.0,Calm,Calm,-,N/A,,Overcast,0,2013-04-27 06:15:00
2:35 AM,53.6,44.4,71,30.37,10.0,Calm,Calm,-,N/A,,Overcast,0,2013-04-27 06:35:00
2:55 AM,52.7,45.9,78,30.37,10.0,Calm,Calm,-,N/A,Rain,Light Rain,0,2013-04-27 06:55:00
3:15 AM,51.1,47.3,87,30.36,10.0,Calm,Calm,-,0.01,Rain,Light Rain,0,2013-04-27 07:15:00
3:35 AM,51.4,46.8,84,30.35,10.0,Calm,Calm,-,0.01,Rain,Light Rain,0,2013-04-27 07:35:00
4:15 AM,50.7,47.3,88,30.34,10.0,Calm,Calm,-,0.01,Rain,Light Rain,0,2013-04-27 08:15:00
4:35 AM,50.4,48.2,92,30.34,7.0,Calm,Calm,-,0.02,Rain,Light Rain,0,2013-04-27 08:35:00
4:55 AM,50.2,48.0,92,30.35,5.0,Calm,Calm,-,0.03,Rain,Rain,0,2013-04-27 08:55:00
5:15 AM,50.0,48.2,94,30.35,5.0,Calm,Calm,-,0.02,Rain,Rain,0,2013-04-27 09:15:00
5:35 AM,50.2,48.4,94,30.35,5.0,Calm,Calm,-,0.04,Rain,Rain,0,2013-04-27 09:35:00
5:55 AM,50.0,48.6,95,30.35,5.0,Calm,Calm,-,0.06,Rain,Light Rain,0,2013-04-27 09:55:00
6:15 AM,50.0,48.7,95,30.34,4.0,Calm,Calm,-,0.02,Rain,Light Rain,0,2013-04-27 10:15:00
7:35 AM,49.3,48.6,97,30.32,5.0,Calm,Calm,-,0.01,Rain,Light Rain,0,2013-04-27 11:35:00
7:55 AM,49.8,49.1,97,30.33,7.0,Calm,Calm,-,0.01,,Mostly Cloudy,0,2013-04-27 11:55:00
8:15 AM,50.2,49.5,97,30.34,10.0,Calm,Calm,-,N/A,,Overcast,0,2013-04-27 12:15:00
8:35 AM,50.9,49.3,94,30.34,10.0,Calm,Calm,-,N/A,,Overcast,0,2013-04-27 12:35:00
8:55 AM,50.9,48.9,93,30.35,10.0,Calm,Calm,-,N/A,,Light Drizzle,0,2013-04-27 12:55:00
9:15 AM,51.4,50.0,95,30.34,7.0,Calm,Calm,-,N/A,,Light Drizzle,0,2013-04-27 13:15:00
9:35 AM,51.8,49.8,93,30.34,10.0,Calm,Calm,-,N/A,,Overcast,0,2013-04-27 13:35:00
9:55 AM,52.7,49.1,88,30.34,10.0,Calm,Calm,-,N/A,,Overcast,0,2013-04-27 13:55:00
10:15 AM,53.1,49.1,86,30.34,10.0,Calm,Calm,-,N/A,,Overcast,0,2013-04-27 14:15:00
10:35 AM,53.6,49.5,86,30.34,10.0,ENE,3.5,-,N/A,,Overcast,70,2013-04-27 14:35:00
10:55 AM,53.8,50.0,87,30.35,10.0,East,3.5,-,N/A,,Overcast,80,2013-04-27 14:55:00
11:15 AM,53.6,50.0,88,30.36,10.0,Calm,Calm,-,N/A,,Light Drizzle,0,2013-04-27 15:15:00
11:35 AM,53.6,41.4,63,30.36,10.0,South,4.6,-,N/A,,Light Drizzle,170,2013-04-27 15:35:00
11:55 AM,53.1,40.6,63,30.37,10.0,Calm,Calm,-,N/A,,Light Drizzle,0,2013-04-27 15:55:00
12:15 PM,50.4,40.8,70,30.39,5.0,SSE,4.6,-,0.02,Rain,Rain,150,2013-04-27 16:15:00
12:35 PM,48.4,44.4,86,30.39,3.0,Calm,Calm,-,0.07,Rain,Rain,0,2013-04-27 16:35:00
12:55 PM,48.4,45.5,90,30.39,5.0,Calm,Calm,-,0.09,Rain,Rain,0,2013-04-27 16:55:00
1:15 PM,48.4,45.9,91,30.39,5.0,Calm,Calm,-,0.03,Rain,Rain,0,2013-04-27 17:15:00
1:35 PM,47.7,45.9,93,30.38,4.0,ESE,3.5,-,0.09,Rain,Rain,110,2013-04-27 17:35:00
1:55 PM,47.7,46.6,96,30.38,4.0,Calm,Calm,-,0.12,Rain,Light Rain,0,2013-04-27 17:55:00
2:15 PM,48.2,46.8,95,30.37,4.0,Calm,Calm,-,0.02,Rain,Rain,0,2013-04-27 18:15:00
2:35 PM,48.0,45.5,91,30.36,4.0,Calm,Calm,-,0.06,Rain,Rain,0,2013-04-27 18:35:00
2:55 PM,48.0,44.6,88,30.35,10.0,Calm,Calm,-,0.07,Rain,Light Rain,0,2013-04-27 18:55:00
3:15 PM,48.4,46.2,92,30.34,10.0,Calm,Calm,-,N/A,Rain,Light Rain,0,2013-04-27 19:15:00
3:35 PM,48.2,46.8,95,30.35,5.0,WSW,3.5,-,0.04,Rain,Rain,240,2013-04-27 19:35:00
3:55 PM,48.2,47.3,97,30.35,5.0,WSW,5.8,-,0.07,Rain,Light Rain,250,2013-04-27 19:55:00
4:15 PM,47.8,46.9,97,30.34,5.0,West,4.6,-,0.03,Rain,Light Rain,260,2013-04-27 20:15:00
4:35 PM,48.2,47.3,97,30.31,7.0,Calm,Calm,-,0.04,Rain,Rain,0,2013-04-27 20:35:00
4:55 PM,48.2,46.6,94,30.30,10.0,Calm,Calm,-,0.04,Rain,Light Rain,0,2013-04-27 20:55:00
5:15 PM,48.2,46.4,93,30.30,7.0,Calm,Calm,-,0.01,Rain,Rain,0,2013-04-27 21:15:00
5:35 PM,48.2,46.6,94,30.30,5.0,Calm,Calm,-,0.02,Rain,Rain,0,2013-04-27 21:35:00
5:55 PM,48.2,46.8,95,30.30,4.0,Calm,Calm,-,0.06,Rain,Rain,0,2013-04-27 21:55:00
6:15 PM,47.7,46.9,97,30.31,3.0,Calm,Calm,-,0.07,Rain,Heavy Rain,0,2013-04-27 22:15:00
6:35 PM,47.5,46.9,98,30.30,1.2,Calm,Calm,-,0.17,Rain,Heavy Rain,0,2013-04-27 22:35:00
6:55 PM,47.3,46.8,98,30.28,2.0,Calm,Calm,-,0.25,Rain,Rain,0,2013-04-27 22:55:00
7:35 PM,47.5,46.9,98,30.27,7.0,Calm,Calm,-,0.01,Rain,Rain,0,2013-04-27 23:35:00
7:55 PM,47.3,46.8,98,30.27,4.0,ENE,3.5,-,0.05,Rain,Rain,60,2013-04-27 23:55:00
8:15 PM,47.3,46.8,98,30.26,7.0,Calm,Calm,-,N/A,Rain,Light Rain,0,2013-04-28 00:15:00
8:35 PM,47.3,46.6,97,30.26,10.0,Calm,Calm,-,N/A,,Overcast,0,2013-04-28 00:35:00
8:55 PM,47.5,46.8,97,30.25,10.0,Calm,Calm,-,N/A,,Overcast,0,2013-04-28 00:55:00
9:15 PM,47.3,46.8,98,30.25,7.0,Calm,Calm,-,N/A,,Overcast,0,2013-04-28 01:15:00
9:35 PM,47.5,46.9,98,30.24,7.0,Calm,Calm,-,N/A,,Overcast,0,2013-04-28 01:35:00
9:55 PM,47.5,46.9,98,30.25,7.0,Calm,Calm,-,N/A,,Overcast,0,2013-04-28 01:55:00
10:15 PM,47.5,46.9,98,30.24,7.0,Calm,Calm,-,N/A,,Overcast,0,2013-04-28 02:15:00
10:35 PM,47.5,46.8,97,30.24,7.0,Calm,Calm,-,N/A,,Overcast,0,2013-04-28 02:35:00
10:55 PM,47.5,46.9,98,30.23,5.0,Calm,Calm,-,N/A,,Overcast,0,2013-04-28 02:55:00
11:15 PM,47.5,46.9,98,30.23,7.0,Calm,Calm,-,0.01,,Light Drizzle,0,2013-04-28 03:15:00
11:35 PM,47.7,46.9,97,30.23,7.0,Calm,Calm,-,0.01,,Overcast,0,2013-04-28 03:35:00
11:55 PM,47.7,46.9,97,30.23,4.0,Calm,Calm,-,0.03,Rain,Heavy Rain,0,2013-04-28 03:55:00